sat.trackr.live / text

‹ back to catalog

STARLINK-32631

NORAD 62235 · 2024-231T

PAYLOAD ACTIVE UNKNOWN

§ Identity

Operator
Country
US
Launch date
2024-12-05
Launch site
AFWTR
Launch vehicle
Mass (kg)
RCS (m²)

Purposes: comms

External: N2YO · Heavens-Above · Gunter

§ Orbital elements

Epoch: 2026-05-24T21:37:35.567040Z

Period
94.01 min
Inclination
53.1616°
Eccentricity
0.0001173
Mean motion
15.31708565 rev/d
Perigee alt
469.9 km
Apogee alt
471.5 km
Semi-major
6,848.9 km
B*
5.1288e-4
RAAN
212.3611°
Arg perigee
82.5941°
Mean anomaly
277.5193°
Rev number
8,361

§ Raw data

STARLINK-326311 62235U 24231T   26144.90110610  .00015588  00000+0  51288-3 0  99982 62235  53.1616 212.3611 0001173  82.5941 277.5193 15.31708565 83612

JSON: /api/v1/satellites/62235 · /tle

For live sub-satellite position, see the globe view (requires WebGL).

§ Visibility from observer

Set your observer location to see the next 7 days of passes ≥ 10°. The values pass through the URL so the page stays shareable.

No JS? Fill the form by hand. The geolocation button needs JavaScript.